Vertical_Velocity
-8 -16 -21 -1 -14 -3 -5 10 -1 -6 0 -3 2 -2 0 3 4 3 -3 4 1 -3 2 0 1 -1 -4
-10 -16 -3 1 -5 1 8 3 2 -9 -10 -2 2 -1 4 13 -2 -0 0 3 2 1 -2 -1 -2 -7 -4
6 -2 -11 14 5 7 5 -4 -4 -4 -5 -6 16 6 16 -4 -2 -3 -8 1 -1 1 4 3 0 3 2
-2 -15 5 8 -1 4 -8 8 2 -5 34 8 -6 -1 3 9 0 -2 -0 3 2 -1 2 2 -0 0 1
-2 -1 -0 12 -1 -3 -7 -0 8 -1 -3 9 9 6 -3 -1 -0 -2 -0 -3 -4 -4 1 1 6 4 -8
5 -3 10 -4 -5 -13 1 -3 -2 12 3 2 -1 -1 -1 -3 1 1 1 -5 -3 3 -2 2 2 1 -2
3 -0 15 1 -2 6 0 20 8 4 11 1 3 -2 -2 -4 -2 -1 -1 -2 -3 3 -1 -0 -8 7 -2
-2 8 5 4 1 -4 -0 -1 -1 3 -1 -3 -3 2 -5 3 -0 -7 -7 2 -1 -1 -3 -6 4 5 2
23 9 1 0 -2 6 4 5 3 1 4 -2 3 -1 2 -4 -4 1 8 -1 -8 -13 9 5 -1 -0 -5
12 3 3 5 2 1 1 -7 0 2 -2 -0 2 6 2 2 4 1 -7 3 0 1 -7 5 0 -0 -6
-1 1 6 1 7 -8 3 -5 3 -5 3 8 5 -3 -4 6 -3 5 -2 -1 -1 -4 -4 -4 6 1 -7
1 -3 -0 -2 -2 -4 -3 -0 -1 -4 2 0 -4 4 -6 1 -3 6 1 -1 5 4 -3 -1 -1 -1 -4
-0 -2 -1 3 0 1 -3 1 -1 1 -4 -1 -6 5 -3 -7 -1 6 -4 -4 1 1 -3 -3 -3 -2 -3
-4 -3 -3 -0 2 1 4 -1 -1 -1 -2 -0 -0 -1 -5 -2 -1 -1 -6 -4 -1 -4 -4 0 -2 -5 -0
-1 -0 1 2 1 -1 0 -1 -3 -2 -2 -3 -0 -1 -1 -2 -1 -4 -3 3 -2 -2 -2 -1 -2 -5 -2
1 0 -1 -4 -5 -4 -4 -3 -2 -4 -3 -2 -2 -4 -7 -2 -3 0 1 -1 -1 -0 -2 -0 -1 -4 -1
-1 -4 -2 -0 0 1 1 0 1 0 0 3 -0 -4 -2 1 6 1 2 -2 -2 -4 -4 -4 -5 -1 -1
Height
3038 3038 3039 3043 3046 3046 3049 3048 3050 3052 3050 3055 3057 3059 3062 3063 3063 3062 3060 3058 3058 3058 3058 3058 3057 3056 3055
3027 3029 3032 3035 3035 3034 3034 3035 3036 3039 3040 3042 3044 3048 3050 3051 3052 3052 3052 3050 3049 3049 3049 3049 3047 3046 3045
3015 3019 3021 3024 3025 3025 3023 3024 3025 3027 3028 3031 3033 3037 3039 3042 3044 3045 3045 3044 3044 3042 3042 3040 3039 3038 3035
3005 3006 3010 3013 3013 3011 3011 3012 3014 3016 3019 3021 3025 3028 3030 3033 3035 3036 3035 3036 3035 3034 3033 3031 3030 3029 3028
2993 2996 2998 3000 3003 3000 3003 3005 3007 3009 3011 3014 3017 3020 3021 3023 3025 3026 3026 3026 3025 3024 3024 3023 3021 3019 3018
2984 2987 2989 2992 2992 2993 2996 2998 3000 3003 3004 3007 3009 3010 3012 3014 3016 3017 3017 3017 3017 3016 3015 3014 3013 3011 3008
2975 2978 2977 2979 2984 2987 2989 2990 2993 2996 2997 2998 3001 3003 3004 3006 3006 3007 3008 3007 3007 3006 3005 3003 3002 3000 2999
2967 2969 2971 2975 2976 2979 2981 2984 2985 2989 2991 2993 2995 2995 2997 2997 2998 2998 2998 2998 2997 2996 2995 2993 2992 2990 2989
2960 2962 2965 2967 2970 2974 2977 2980 2982 2983 2984 2986 2988 2988 2988 2987 2988 2988 2989 2988 2987 2986 2984 2981 2980 2979 2979
2954 2957 2961 2963 2966 2968 2971 2974 2977 2976 2978 2978 2979 2979 2980 2980 2979 2978 2978 2977 2976 2973 2973 2972 2969 2969 2969
2951 2954 2956 2958 2959 2962 2964 2966 2968 2968 2968 2969 2972 2972 2970 2971 2971 2970 2969 2968 2967 2965 2963 2961 2959 2958 2959
2948 2950 2951 2952 2954 2955 2957 2959 2960 2960 2959 2959 2961 2962 2961 2962 2963 2962 2961 2958 2957 2955 2953 2950 2950 2948 2947
2944 2945 2946 2947 2947 2949 2950 2952 2952 2950 2951 2951 2950 2949 2949 2949 2950 2950 2950 2949 2946 2944 2942 2941 2941 2940 2939
2939 2940 2941 2941 2941 2942 2943 2944 2943 2941 2942 2940 2940 2939 2939 2938 2936 2935 2934 2933 2934 2932 2931 2930 2930 2929 2929
2933 2934 2934 2935 2935 2934 2934 2934 2934 2934 2933 2932 2931 2929 2927 2925 2924 2922 2921 2920 2919 2919 2919 2920 2920 2918 2917
2927 2927 2926 2926 2925 2925 2924 2924 2924 2923 2923 2921 2917 2915 2914 2913 2911 2912 2911 2910 2909 2907 2907 2905 2909 2907 2907
2919 2918 2917 2917 2917 2915 2914 2912 2910 2909 2908 2908 2906 2903 2899 2897 2900 2897 2897 2898 2897 2897 2896 2895 2898 2899 2897